Wind_Speed
22 23 23 23 24 24 23 21 20 21 22 22 23 24 23 24 24 24 23 22 22 22 22 22 21 20 20 20 19 19 18 17 16 16 15 14 13 12 12 11 11 10 10 10 9 8 8 8 7
23 24 25 25 25 24 23 22 23 23 23 24 25 25 25 25 25 24 24 24 23 23 23 23 23 22 22 21 21 21 20 19 19 17 17 16 15 14 14 13 13 12 12 11 11 10 9 9 9
25 26 27 27 26 25 24 23 24 25 25 25 26 26 26 26 26 26 26 26 25 25 24 24 24 24 23 23 22 22 22 21 21 20 19 18 17 16 16 15 14 14 13 13 12 12 11 11 11
27 28 29 29 28 26 26 26 26 26 27 27 27 27 27 27 27 27 27 27 27 27 26 25 25 25 25 25 24 24 23 23 22 22 21 20 19 18 18 17 16 16 15 14 14 14 13 13 13
29 30 30 30 28 27 28 28 29 29 30 30 30 30 29 29 30 29 29 29 29 28 27 27 26 26 26 26 26 26 25 25 24 24 23 22 21 20 19 19 19 18 17 17 16 16 15 15 14
30 31 32 31 30 30 31 31 32 32 33 33 33 33 32 32 32 32 32 32 31 30 30 29 29 28 28 28 28 28 28 27 27 26 25 24 24 23 22 21 21 20 19 19 18 18 17 17 16
31 33 33 33 33 33 33 34 34 35 35 35 36 36 34 34 35 35 34 34 34 33 33 32 31 31 30 30 30 29 29 29 29 28 27 26 26 25 24 23 23 22 21 21 20 20 19 18 17
33 34 34 34 35 35 35 36 37 38 38 38 38 38 37 36 37 37 37 37 36 36 35 35 34 34 33 32 32 31 31 31 30 30 30 29 28 27 26 25 25 24 23 23 22 22 21 20 19
34 35 35 35 36 37 37 38 39 40 40 41 41 41 40 39 40 40 40 40 39 39 38 38 37 37 36 35 34 34 33 33 33 32 32 31 30 29 28 28 27 26 26 25 25 24 24 23 22
34 35 35 36 37 38 39 39 40 41 42 42 43 43 42 42 42 42 42 42 42 42 41 41 41 40 39 38 37 37 36 35 34 35 34 33 33 32 31 30 29 28 28 27 26 26 26 25 24
34 35 35 36 37 38 38 39 39 41 42 43 44 44 44 43 43 43 44 45 45 44 44 43 43 43 42 41 40 40 39 38 37 37 36 36 35 34 33 32 32 31 30 29 28 28 28 28 27
32 33 34 35 36 37 38 38 39 41 42 43 45 45 45 45 45 45 45 46 46 46 46 46 46 45 45 44 44 43 42 41 40 39 39 38 37 36 35 35 34 33 32 31 31 30 30 30 29
31 31 32 33 35 37 38 39 40 40 43 44 45 46 47 46 46 46 46 47 48 48 48 48 48 48 48 47 47 46 45 44 43 42 41 41 40 39 38 37 36 36 35 34 33 32 32 32 31
31 31 32 33 35 36 38 39 40 40 42 43 45 46 46 46 46 46 47 48 48 48 49 50 50 50 49 49 49 49 48 47 46 45 44 43 43 42 40 40 39 38 37 36 35 35 34 34 33
31 31 31 32 34 36 38 37 39 41 42 43 44 46 46 47 47 47 47 47 49 50 50 51 51 51 51 50 50 51 51 50 48 47 47 46 45 44 43 42 41 41 40 39 38 37 37 36 35
30 31 31 32 34 36 39 38 39 41 42 43 44 45 46 46 47 48 47 48 50 51 51 52 52 52 52 52 53 53 53 52 52 49 49 48 47 47 46 45 44 43 43 41 40 39 39 38 38
30 31 32 33 35 37 38 38 38 40 42 42 43 44 45 45 46 46 46 48 50 52 52 53 53 53 53 54 55 54 54 54 54 53 51 50 49 49 48 47 46 45 45 44 43 41 41 40 39
32 32 32 33 36 37 38 37 37 39 41 41 41 42 44 45 45 45 47 48 49 51 52 53 53 53 54 55 56 56 56 55 55 54 53 52 51 51 50 49 48 47 46 46 45 43 43 42 41
33 33 33 35 37 38 37 37 36 37 39 39 40 41 42 44 44 45 46 47 48 49 50 51 51 53 53 55 55 56 56 56 56 55 55 54 54 53 52 51 50 49 48 47 46 45 45 44 43
34 35 35 36 37 38 37 36 34 34 37 38 39 40 42 43 43 44 45 45 46 47 47 48 49 50 52 53 54 55 56 56 57 56 56 56 55 54 53 52 52 50 49 48 48 48 47 46 45
35 36 37 38 38 37 38 36 33 34 36 38 38 39 41 41 42 43 44 44 44 45 46 46 46 49 50 51 53 54 55 56 57 57 57 58 57 55 55 54 54 53 51 50 50 49 48 48 47
35 36 37 38 39 38 38 39 33 34 36 37 37 38 39 40 40 40 42 42 43 44 45 46 46 47 48 49 51 51 53 54 55 57 58 58 58 57 56 56 55 55 53 53 52 51 50 49 48
36 37 38 39 39 39 37 40 36 36 36 36 37 38 38 39 39 39 39 41 42 43 44 45 45 46 47 47 49 50 52 53 54 55 57 57 58 57 58 57 56 56 55 54 53 52 51 50 49
36 37 38 39 40 40 38 39 37 36 35 35 36 36 37 38 38 38 39 40 41 40 42 44 45 45 45 46 48 48 50 52 53 54 55 56 58 58 57 56 56 56 56 56 55 53 52 50 49
37 37 39 41 40 39 38 38 37 36 35 35 35 34 36 37 37 37 38 39 39 39 41 42 43 42 43 44 45 47 48 50 51 53 54 55 57 57 56 57 55 55 55 54 54 54 53 51 50
37 38 38 40 41 40 39 39 37 35 34 35 35 35 36 37 36 36 37 37 38 39 39 40 41 41 42 42 43 44 46 48 49 51 51 53 54 56 56 56 55 55 55 54 53 54 53 52 52
38 38 38 40 42 42 41 40 39 35 35 35 35 35 35 36 36 35 36 37 37 39 38 39 40 40 41 42 43 42 43 46 48 49 49 51 53 55 57 56 55 54 55 54 53 52 53 53 52
40 39 39 40 42 43 43 41 39 37 35 35 35 35 35 34 34 35 36 36 37 37 37 38 40 40 41 41 41 42 43 43 45 47 48 49 52 54 56 56 56 55 55 54 53 53 53 53 53
40 40 40 41 42 43 44 41 39 38 37 36 35 36 36 35 34 35 36 36 36 36 37 38 40 40 40 40 41 41 41 43 45 46 47 48 49 51 53 55 55 54 55 54 54 53 52 52 53
41 41 41 41 42 44 46 45 40 38 37 37 37 36 36 35 35 35 35 36 36 36 38 39 39 39 40 40 41 41 41 42 43 45 46 48 49 49 51 53 54 54 53 53 54 54 53 52 52
Wind_Direction
257 256 257 257 257 257 257 258 257 255 253 253 252 253 254 255 254 254 254 252 251 251 249 249 249 248 248 249 250 250 249 248 249 250 251 252 254 256 259 262 265 268 270 273 274 277 279 276 278
258 258 257 257 258 258 258 258 258 256 256 255 254 255 254 255 255 255 255 253 252 252 251 250 250 249 248 249 250 250 250 249 248 250 251 252 254 255 257 260 262 265 267 269 270 271 273 272 273
260 259 259 258 258 260 262 260 259 257 257 256 255 256 255 255 256 255 254 254 253 252 250 250 251 250 250 249 249 249 250 249 248 249 250 252 252 254 255 258 260 262 265 266 267 268 269 268 271
261 260 260 260 261 262 263 262 259 258 257 256 255 254 255 255 255 255 254 254 253 252 251 251 251 251 251 251 251 250 249 249 249 248 249 251 252 252 255 257 258 259 261 263 264 266 267 267 270
261 261 261 262 262 263 262 261 260 259 257 256 256 255 255 255 255 254 253 253 252 252 252 252 252 252 251 251 252 251 249 249 249 249 249 250 251 252 253 255 257 257 259 260 261 263 267 266 268
263 263 263 264 264 263 263 262 260 259 259 258 258 257 256 256 255 254 253 253 252 252 252 252 252 251 251 251 252 252 251 249 249 249 249 250 251 251 252 254 255 256 258 258 259 260 264 265 266
265 265 266 266 265 264 264 263 263 262 261 260 260 259 256 256 256 255 254 253 253 252 251 252 252 252 252 252 252 252 251 250 249 249 249 249 250 251 251 253 254 255 257 257 257 258 260 263 265
268 268 267 267 266 265 264 263 262 261 261 260 260 259 258 256 255 255 254 254 253 252 251 251 252 252 252 252 252 252 251 250 249 249 248 249 250 251 252 252 254 255 256 256 256 257 258 260 263
269 269 269 268 268 267 265 264 262 262 261 260 260 259 259 256 255 255 255 254 253 252 251 251 251 252 252 252 252 252 251 250 250 249 249 249 249 250 251 252 253 254 255 256 256 256 257 259 261
272 271 270 270 269 268 266 265 263 261 260 260 260 259 259 257 256 255 255 256 255 254 252 251 250 251 251 251 252 252 251 250 250 250 249 248 249 250 250 252 253 254 254 255 256 255 257 259 260
274 273 272 271 270 269 267 265 263 261 260 260 259 259 259 258 257 255 255 255 255 254 252 251 250 250 250 250 250 251 250 250 249 249 249 248 248 249 249 251 252 254 254 254 255 256 257 257 259
279 277 275 274 272 271 269 266 264 263 262 261 261 259 258 258 256 255 255 255 254 254 253 251 250 249 249 249 249 250 250 250 249 249 249 249 249 250 250 250 251 252 254 254 255 255 256 257 257
282 280 279 278 276 274 271 269 267 265 264 263 263 261 259 258 257 256 256 255 255 254 253 252 250 249 248 248 249 249 249 249 249 248 249 248 249 249 250 250 250 251 253 253 254 255 255 256 257
284 282 281 281 278 276 274 271 268 266 265 264 264 262 260 260 258 256 256 257 257 255 254 252 251 250 249 248 249 249 248 248 248 248 248 248 248 249 249 249 249 251 252 253 254 254 255 256 257
286 284 282 282 282 279 276 274 271 269 267 266 265 263 260 260 258 257 257 257 257 256 254 253 251 250 248 248 248 249 248 247 247 246 247 248 248 249 248 248 249 250 251 252 252 254 255 256 256
288 286 285 285 284 280 278 277 275 273 270 267 266 264 262 261 260 258 257 257 257 256 254 252 251 249 248 248 248 248 247 247 246 246 246 247 248 248 248 248 248 249 251 251 251 252 254 255 256
291 289 288 287 286 283 280 279 277 274 272 269 268 265 263 262 260 258 258 258 257 256 254 252 251 249 248 248 248 248 247 246 245 245 246 245 247 247 247 248 248 249 250 251 252 252 253 254 255
293 291 289 290 288 285 283 282 280 277 274 272 270 268 266 263 261 259 259 258 257 256 255 253 251 249 248 248 248 247 247 246 245 245 245 244 245 246 246 247 247 248 250 251 251 251 252 254 254
293 292 292 292 289 287 287 286 284 279 276 276 273 270 268 266 264 262 260 260 258 256 255 254 251 249 248 248 247 247 246 245 244 244 244 243 244 245 245 245 246 247 249 250 250 250 252 253 253
294 294 293 293 292 291 291 290 289 284 279 279 278 273 271 269 266 263 262 260 259 257 255 253 251 250 249 248 247 246 245 244 244 243 243 243 244 244 244 244 244 245 247 248 249 250 251 251 252
295 295 295 295 295 293 293 291 289 287 284 283 280 276 273 271 269 265 264 261 260 258 256 255 252 250 249 248 247 246 245 244 244 244 244 244 243 243 243 243 244 244 246 247 248 249 250 251 251
295 295 295 295 295 295 295 294 291 292 289 286 282 278 277 272 269 266 263 261 260 260 257 256 253 250 248 247 247 246 246 245 244 243 244 244 243 243 243 242 243 244 245 246 247 249 251 250 251
295 294 294 295 295 294 295 295 295 294 292 290 285 281 278 273 269 267 265 263 262 261 258 254 253 251 248 248 247 247 246 245 244 244 244 244 242 241 242 242 242 243 244 245 246 248 249 249 250
294 293 293 294 294 294 296 297 297 296 295 292 289 285 281 275 271 268 266 266 263 261 258 254 253 252 250 249 248 248 246 246 245 244 243 243 242 241 241 241 242 242 244 245 245 246 247 248 249
293 294 294 294 294 295 297 298 300 299 297 294 290 286 283 278 274 272 269 268 265 264 260 256 254 253 252 251 250 249 248 248 246 244 243 243 242 240 240 240 242 243 243 245 246 245 246 246 248
292 293 294 295 296 295 296 297 299 300 299 296 291 288 285 279 276 273 271 268 266 263 260 257 256 255 253 251 251 250 249 249 247 246 245 244 243 241 239 239 240 242 242 244 246 245 245 246 247
291 291 292 293 294 294 295 296 296 299 297 293 289 287 286 282 278 275 272 269 265 263 263 260 256 255 254 252 252 250 250 250 249 247 246 244 243 241 240 239 240 241 243 244 245 245 245 245 246
289 290 291 291 293 294 295 296 297 299 297 292 289 286 284 281 276 274 273 271 269 266 264 261 258 257 255 253 251 250 250 250 250 249 247 245 244 242 241 240 240 241 242 243 244 245 246 246 246
287 287 288 288 290 292 295 295 298 298 296 292 287 284 283 281 276 274 272 271 269 267 265 263 259 257 254 253 251 250 249 249 249 249 247 245 244 243 242 240 240 241 242 243 244 246 247 247 247
285 286 286 287 289 290 292 294 298 297 294 290 285 282 281 280 277 275 272 271 270 267 263 261 259 258 255 253 251 251 250 251 250 250 248 246 245 245 244 242 241 241 242 243 244 245 246 247 246
Height
5811 5812 5813 5814 5815 5816 5818 5821 5822 5823 5825 5826 5826 5827 5829 5831 5833 5836 5836 5837 5838 5839 5840 5841 5842 5843 5845 5846 5847 5848 5850 5851 5852 5853 5854 5855 5855 5856 5857 5858 5859 5859 5860 5860 5861 5861 5861 5862 5862
5806 5807 5808 5809 5810 5811 5814 5816 5817 5818 5820 5821 5822 5823 5824 5826 5828 5830 5831 5832 5834 5835 5836 5837 5839 5840 5841 5842 5844 5845 5846 5848 5849 5850 5851 5852 5853 5854 5854 5855 5856 5857 5858 5858 5859 5859 5860 5860 5860
5801 5802 5803 5803 5805 5807 5810 5811 5812 5813 5814 5816 5817 5818 5819 5821 5823 5824 5826 5827 5829 5831 5832 5833 5835 5836 5837 5838 5840 5841 5842 5844 5845 5846 5848 5849 5850 5851 5852 5853 5853 5854 5855 5856 5856 5857 5857 5858 5858
5796 5797 5797 5799 5800 5803 5804 5805 5806 5807 5808 5810 5811 5812 5814 5816 5818 5819 5821 5822 5824 5826 5827 5829 5830 5831 5833 5834 5835 5837 5838 5840 5841 5843 5844 5845 5846 5847 5848 5850 5850 5851 5852 5853 5854 5854 5855 5855 5856
5789 5790 5791 5792 5794 5797 5798 5798 5799 5800 5801 5803 5805 5806 5808 5810 5811 5813 5815 5816 5818 5820 5822 5824 5825 5827 5828 5830 5831 5832 5834 5835 5837 5838 5840 5841 5842 5844 5845 5846 5847 5848 5849 5850 5851 5851 5852 5853 5853
5783 5783 5784 5786 5788 5790 5791 5791 5792 5793 5794 5795 5797 5799 5802 5803 5805 5806 5808 5810 5812 5814 5816 5818 5819 5821 5823 5824 5826 5827 5829 5830 5832 5834 5835 5837 5838 5839 5841 5842 5843 5844 5845 5846 5847 5848 5848 5849 5850
5776 5776 5777 5779 5780 5782 5783 5783 5784 5785 5786 5788 5788 5791 5794 5796 5797 5799 5801 5803 5805 5807 5809 5811 5813 5815 5817 5818 5820 5822 5823 5825 5827 5828 5830 5832 5833 5835 5836 5838 5839 5840 5841 5842 5843 5844 5844 5845 5846
5767 5768 5769 5770 5771 5773 5775 5774 5775 5775 5777 5779 5780 5782 5785 5788 5789 5790 5793 5795 5798 5800 5802 5804 5806 5808 5810 5812 5814 5816 5817 5819 5821 5822 5824 5826 5828 5829 5831 5833 5834 5836 5837 5838 5839 5840 5840 5841 5842
5758 5760 5760 5761 5761 5763 5764 5764 5765 5766 5767 5769 5770 5772 5776 5778 5780 5782 5784 5787 5789 5792 5794 5796 5799 5801 5803 5805 5807 5809 5811 5813 5815 5816 5818 5820 5822 5824 5825 5827 5829 5830 5832 5833 5834 5835 5836 5837 5838
5750 5750 5751 5751 5751 5752 5753 5753 5754 5755 5756 5758 5760 5762 5765 5768 5770 5773 5775 5778 5780 5783 5785 5788 5790 5793 5795 5798 5800 5802 5804 5806 5808 5810 5812 5814 5816 5818 5819 5821 5823 5824 5826 5828 5829 5830 5831 5832 5833
5742 5742 5741 5741 5740 5740 5741 5742 5743 5743 5745 5747 5749 5751 5753 5756 5759 5762 5765 5767 5770 5773 5776 5778 5781 5784 5786 5789 5791 5794 5796 5798 5800 5802 5804 5806 5809 5811 5813 5815 5816 5818 5820 5822 5823 5824 5826 5827 5828
5734 5733 5732 5732 5730 5730 5730 5731 5732 5733 5734 5735 5737 5740 5742 5745 5748 5751 5754 5756 5759 5762 5765 5768 5770 5773 5776 5779 5782 5785 5787 5790 5792 5794 5796 5799 5801 5803 5806 5808 5810 5812 5814 5815 5817 5818 5819 5821 5822
5725 5725 5723 5722 5721 5720 5719 5719 5720 5723 5723 5723 5725 5727 5730 5733 5736 5739 5742 5745 5747 5750 5753 5756 5759 5762 5765 5768 5771 5774 5778 5781 5783 5785 5788 5790 5793 5795 5798 5800 5802 5804 5806 5808 5810 5811 5813 5814 5816
5718 5716 5715 5714 5711 5710 5709 5709 5709 5711 5711 5712 5712 5714 5716 5719 5723 5726 5729 5732 5734 5737 5740 5743 5746 5750 5753 5757 5760 5764 5767 5770 5773 5776 5779 5781 5784 5787 5789 5792 5794 5796 5798 5800 5802 5804 5806 5807 5809
5710 5709 5708 5705 5702 5700 5699 5699 5698 5699 5698 5699 5700 5701 5703 5706 5709 5712 5715 5719 5721 5724 5727 5730 5733 5737 5741 5745 5748 5752 5755 5759 5762 5765 5768 5771 5774 5777 5780 5783 5785 5788 5790 5792 5794 5796 5798 5800 5802
5702 5701 5699 5697 5693 5690 5690 5690 5690 5687 5686 5687 5688 5688 5690 5693 5695 5698 5702 5705 5708 5711 5714 5717 5720 5724 5727 5731 5735 5739 5743 5746 5750 5753 5757 5760 5764 5767 5770 5773 5776 5779 5781 5783 5786 5788 5790 5792 5793
5695 5693 5691 5689 5685 5681 5679 5679 5679 5676 5674 5675 5676 5676 5678 5680 5682 5685 5688 5690 5693 5696 5699 5702 5706 5710 5714 5717 5721 5726 5729 5733 5737 5741 5745 5749 5752 5756 5760 5763 5766 5769 5772 5774 5777 5779 5781 5783 5785
5688 5686 5683 5681 5677 5673 5670 5669 5669 5666 5664 5664 5664 5664 5666 5667 5670 5672 5674 5676 5679 5681 5684 5688 5692 5696 5699 5702 5706 5711 5715 5720 5724 5728 5733 5737 5741 5744 5748 5752 5755 5758 5761 5764 5767 5770 5772 5774 5776
5680 5678 5675 5673 5668 5664 5663 5661 5660 5658 5655 5654 5653 5654 5655 5656 5657 5659 5661 5662 5664 5667 5670 5673 5677 5681 5684 5688 5692 5696 5701 5705 5710 5715 5720 5724 5728 5732 5736 5740 5744 5747 5750 5754 5756 5759 5762 5764 5766
5673 5670 5667 5665 5660 5656 5654 5654 5652 5649 5647 5645 5644 5644 5644 5644 5645 5646 5648 5649 5651 5654 5657 5659 5663 5666 5669 5673 5677 5681 5686 5691 5696 5701 5705 5710 5715 5719 5723 5728 5732 5736 5739 5742 5746 5749 5752 5754 5756
5666 5662 5659 5656 5653 5650 5646 5647 5646 5643 5639 5637 5635 5634 5633 5633 5634 5635 5636 5637 5639 5641 5644 5646 5649 5652 5655 5658 5662 5666 5670 5675 5681 5686 5691 5696 5701 5706 5711 5715 5720 5724 5727 5731 5734 5738 5741 5744 5746
5659 5655 5651 5648 5644 5642 5639 5636 5640 5635 5631 5628 5627 5625 5623 5623 5623 5623 5624 5626 5627 5629 5631 5633 5635 5638 5641 5644 5648 5651 5656 5661 5667 5672 5677 5682 5687 5693 5697 5702 5706 5711 5715 5719 5722 5726 5729 5732 5735
5651 5647 5644 5640 5636 5634 5633 5628 5631 5627 5624 5620 5618 5616 5614 5613 5613 5613 5613 5614 5616 5617 5619 5620 5622 5625 5628 5631 5634 5637 5642 5648 5653 5658 5663 5668 5673 5678 5683 5688 5693 5698 5702 5706 5710 5713 5717 5721 5724
5642 5639 5636 5632 5629 5628 5626 5621 5621 5619 5615 5612 5609 5606 5605 5604 5604 5603 5603 5604 5604 5605 5607 5608 5610 5612 5616 5619 5622 5624 5629 5634 5638 5643 5648 5653 5658 5664 5669 5674 5679 5684 5689 5693 5697 5701 5705 5709 5712
5635 5632 5627 5623 5621 5620 5617 5613 5614 5611 5607 5603 5601 5598 5597 5596 5595 5594 5594 5594 5594 5595 5596 5597 5599 5602 5604 5607 5610 5612 5616 5620 5624 5628 5633 5639 5644 5650 5655 5660 5666 5671 5676 5680 5684 5688 5692 5696 5700
5627 5624 5621 5615 5612 5610 5609 5606 5607 5604 5600 5595 5592 5590 5588 5587 5586 5585 5585 5584 5584 5585 5586 5588 5589 5591 5593 5595 5598 5600 5603 5606 5610 5614 5619 5624 5630 5636 5642 5647 5652 5657 5662 5667 5671 5675 5680 5684 5688
5618 5616 5613 5607 5603 5600 5600 5599 5599 5597 5593 5588 5585 5582 5580 5578 5577 5576 5575 5575 5575 5576 5577 5578 5579 5581 5583 5585 5586 5589 5592 5594 5598 5602 5606 5611 5616 5621 5627 5633 5638 5643 5649 5654 5659 5663 5668 5672 5675
5610 5607 5603 5599 5594 5590 5590 5590 5591 5588 5585 5581 5578 5574 5572 5570 5569 5567 5566 5566 5566 5566 5567 5568 5569 5571 5573 5574 5576 5578 5581 5583 5587 5590 5594 5598 5603 5608 5613 5619 5625 5630 5636 5641 5645 5650 5655 5659 5663
5601 5598 5594 5590 5586 5583 5579 5584 5583 5580 5575 5572 5569 5565 5563 5562 5560 5559 5558 5558 5558 5558 5558 5558 5560 5560 5562 5564 5566 5568 5571 5573 5576 5579 5582 5586 5591 5595 5600 5606 5611 5616 5622 5627 5632 5637 5641 5646 5651
5590 5589 5586 5583 5579 5574 5569 5574 5575 5571 5566 5562 5559 5557 5554 5553 5552 5551 5550 5550 5549 5549 5549 5549 5550 5551 5553 5554 5556 5558 5560 5562 5565 5568 5571 5574 5578 5583 5587 5592 5597 5603 5608 5613 5618 5623 5628 5633 5638